Alicante, Spain

4:28 PM CET on March 23, 2017 (GMT +0100)
Alicante

Weather History for LEAL - February, 2013

Change the Weather History Date:

Wednesday, February 20, 2013

  Actual Average Record
Temperature  
Mean Temperature 54 °F -  
Max Temperature 61 °F 63 °F 76 °F (2014)
Min Temperature 48 °F 45 °F 35 °F (2002)
Degree Days  
Heating Degree Days 10    
Growing Degree Days 4 (Base 50)    
Moisture  
Dew Point 45 °F    
Average Humidity 70    
Maximum Humidity 88    
Minimum Humidity 36    
Precipitation  
Precipitation 0.00 in - - ()
Sea Level Pressure  
Sea Level Pressure 29.92 in    
Wind  
Wind Speed 6 mph ()    
Max Wind Speed 13 mph    
Max Gust Speed 17 mph    
Visibility 6.8 miles    
Events      
Averages and records for this station are not official NWS values.
T = Trace of Precipitation, MM = Missing Value Source: Averaged Metar Reports

Daily Weather History Graph

Daily Weather History Graph

Search for Another Location

Airport or City:

Trip Planner

Search our weather history database for the weather conditions in past years. The results will help you decide how hot, cold, wet, or windy it might be!

Date:

Astronomy

Feb. 20, 2013 Rise Set
Actual Time 7:46 AM CET 6:46 PM CET
Civil Twilight 7:19 AM CET 7:12 PM CET
Nautical Twilight 6:48 AM CET 7:43 PM CET
Astronomical Twilight 6:18 AM CET 8:14 PM CET
Moon 1:57 PM CET (2/20) 3:52 AM CET (2/20)
Length of Visible Light 11h 53m
Length of Day
10h 59m
Waxing Gibbous, 74% of the Moon is Illuminated
Feb 20
Waxing Gibbous
Feb 25
Full
Mar 4
Last Quarter
Mar 11
New
Mar 19
First Quarter

Hourly Weather History & Observations

Time (CET) Temp. Dew Point Humidity Pressure Visibility Wind Dir Wind Speed Gust Speed Precip Events Conditions
12:00 AM 55.4 °F 51.8 °F 88% 29.89 in 6.2 mi NE 11.5 mph - N/A   Mostly Cloudy
12:30 AM 55.4 °F 51.8 °F 88% 29.89 in 6.2 mi NE 12.7 mph - N/A   Scattered Clouds
1:30 AM 53.6 °F 50.0 °F 88% 29.89 in 6.2 mi NE 10.4 mph - N/A   Partly Cloudy
2:00 AM 53.6 °F 50.0 °F 88% 29.89 in 6.2 mi NE 12.7 mph - N/A   Partly Cloudy
2:30 AM 55.4 °F 48.2 °F 77% 29.89 in 6.2 mi ENE 12.7 mph - N/A   Partly Cloudy
3:00 AM 53.6 °F 48.2 °F 82% 29.92 in 6.2 mi ENE 12.7 mph - N/A   Partly Cloudy
4:00 AM 53.6 °F 48.2 °F 82% 29.89 in 6.2 mi ENE 9.2 mph - N/A   Partly Cloudy
5:00 AM 53.6 °F 46.4 °F 77% 29.89 in 6.2 mi NE 9.2 mph - N/A   Partly Cloudy
5:30 AM 51.8 °F 44.6 °F 76% 29.89 in 6.2 mi Variable 2.3 mph - N/A   Partly Cloudy
6:00 AM 50.0 °F 44.6 °F 82% 29.89 in 6.2 mi North 3.5 mph - N/A   Partly Cloudy
6:30 AM 50.0 °F 46.4 °F 87% 29.89 in 6.2 mi North 4.6 mph - N/A   Partly Cloudy
7:00 AM 50 °F 42 °F 67% 29.90 in 12 mi North 6.9 mph - -   Scattered Clouds
7:00 AM 50.0 °F 44.6 °F 82% 29.89 in 6.2 mi North 6.9 mph - N/A   Partly Cloudy
7:30 AM 50.0 °F 44.6 °F 82% 29.89 in 6.2 mi North 5.8 mph - N/A   Partly Cloudy
8:00 AM 50.0 °F 42.8 °F 76% 29.89 in 6.2 mi North 5.8 mph - N/A   Partly Cloudy
8:30 AM 50.0 °F 42.8 °F 76% 29.89 in 6.2 mi Variable 2.3 mph - N/A   Partly Cloudy
9:00 AM 51.8 °F 44.6 °F 76% 29.92 in - Variable 1.2 mph - N/A   Clear
10:00 AM 55.4 °F 44.6 °F 67% 29.95 in - Variable 2.3 mph - N/A   Clear
10:30 AM 57.2 °F 44.6 °F 63% 29.95 in - Variable 1.2 mph - N/A   Clear
11:00 AM 57.2 °F 44.6 °F 63% 29.98 in - Variable 2.3 mph - N/A   Clear
11:30 AM 59.0 °F 44.6 °F 59% 29.98 in - South 3.5 mph - N/A   Clear
12:00 PM 60.8 °F 44.6 °F 55% 29.98 in - South 3.5 mph - N/A   Clear
12:30 PM 60.8 °F 44.6 °F 55% 29.95 in - Variable 5.8 mph 17.3 mph N/A   Clear
1:00 PM 61 °F 41 °F 36% 29.96 in 12 mi SW 3.5 mph - -   Clear
1:00 PM 60.8 °F 44.6 °F 55% 29.95 in 6.2 mi Variable 2.3 mph - N/A   Partly Cloudy
1:30 PM 60.8 °F 44.6 °F 55% 29.95 in 6.2 mi SE 5.8 mph - N/A   Partly Cloudy
2:00 PM 60.8 °F 41.0 °F 48% 29.92 in 6.2 mi ESE 6.9 mph - N/A   Partly Cloudy
3:00 PM 60.8 °F 42.8 °F 52% 29.92 in 6.2 mi SE 5.8 mph - N/A   Partly Cloudy
4:00 PM 60.8 °F 44.6 °F 55% 29.92 in 6.2 mi SSW 5.8 mph - N/A   Partly Cloudy
4:30 PM 60.8 °F 44.6 °F 55% 29.92 in 6.2 mi South 5.8 mph - N/A   Partly Cloudy
5:00 PM 60.8 °F 44.6 °F 55% 29.92 in 6.2 mi South 4.6 mph - N/A   Partly Cloudy
5:30 PM 59.0 °F 44.6 °F 59% 29.92 in 6.2 mi South 3.5 mph - N/A   Partly Cloudy
6:00 PM 57.2 °F 44.6 °F 63% 29.92 in 6.2 mi Variable 2.3 mph - N/A   Partly Cloudy
6:30 PM 57.2 °F 44.6 °F 63% 29.92 in 6.2 mi Variable 2.3 mph - N/A   Partly Cloudy
7:00 PM 55 °F 41 °F 49% 29.94 in 12 mi South 2.3 mph - -   Clear
7:00 PM 55.4 °F 44.6 °F 67% 29.92 in 6.2 mi Variable 1.2 mph - N/A   Partly Cloudy
7:30 PM 55.4 °F 44.6 °F 67% 29.95 in - Calm Calm - N/A   Clear
8:00 PM 53.6 °F 44.6 °F 72% 29.95 in - Variable 1.2 mph - N/A   Clear
8:30 PM 53.6 °F 46.4 °F 77% 29.95 in - Variable 2.3 mph - N/A   Clear
9:00 PM 51.8 °F 46.4 °F 82% 29.95 in - Variable 2.3 mph - N/A   Clear
9:30 PM 51.8 °F 46.4 °F 82% 29.95 in - West 4.6 mph - N/A   Clear
10:00 PM 50.0 °F 44.6 °F 82% 29.95 in - West 5.8 mph - N/A   Clear
10:30 PM 50.0 °F 44.6 °F 82% 29.95 in - West 3.5 mph - N/A   Clear
11:00 PM 48.2 °F 44.6 °F 87% 29.95 in - Variable 1.2 mph - N/A   Clear
11:30 PM 48.2 °F 44.6 °F 87% 29.95 in - Variable 1.2 mph - N/A   Clear